Simultaneous Nadir Overpasses (SNOs) Predictions

Prediction of SNOs between GOES-16 and METOP-B Satellite Orbit:

Table of predicted SNOs for the next 14.0 days since TLE Epoch: 1/6/2025
<
Index Date Time (GOES-16) GOES-16 Lat,Lon METOP-B Lat,Lon Distance(km) Time Diff (sec)
1 01/06/2025 02:28:16 -0.02, -75.18 0.00, -78.18 333.02 80
2 01/07/2025 02:06:06 -0.01, -75.18 0.44, -73.06 240.72 5
3 01/08/2025 14:23:51 -0.01, -75.21 0.53, -77.68 281.59 80
4 01/09/2025 14:05:56 -0.01, -75.21 -0.56, -72.72 284.13 80
5 01/11/2025 02:25:05 0.01, -75.18 -0.48, -77.36 248.94 80
6 01/12/2025 02:01:50 0.00, -75.18 0.62, -72.40 317.04 80
7 01/13/2025 14:20:49 -0.00, -75.22 0.39, -77.01 203.92 80
8 01/14/2025 14:02:55 -0.00, -75.22 -0.72, -72.04 362.72 80
9 01/16/2025 02:22:02
